Weather reports worldwide

Advertisment
Harsfjarden, Sweden (2489): temperature & dewpoint: 22.05.2020 22:00:00 - 28.05.2020 22:00:00 (CEST)Harsfjarden, Sweden (2489): wind speed & gusts: 22.05.2020 22:00:00 - 28.05.2020 22:00:00 (CEST)Harsfjarden, Sweden (2489): wind direction: 22.05.2020 22:00:00 - 28.05.2020 22:00:00 (CEST)Harsfjarden, Sweden (2489): reduced air pressure: 22.05.2020 22:00:00 - 28.05.2020 22:00:00 (CEST)Harsfjarden, Sweden (2489): visibility: 22.05.2020 22:00:00 - 28.05.2020 22:00:00 (CEST)Harsfjarden, Sweden (2489): precipitation: 22.05.2020 22:00:00 - 28.05.2020 22:00:00 (CEST)
Date & Time tt [°C] td [°C] ff [km/h] ff [kn] fx [km/h] fx [kn] dd ppp [hPa] vv [km] rr [mm]
28.05.2020 22:00:00 7,9 6,4 4 2 14 8 WSW 1030,3 50 0,0
28.05.2020 21:00:00 10,3 6,8 7 4 14 8 SSE 1030,2 45 0,0
28.05.2020 20:00:00 10,5 6,6 11 6 14 8 SE 1030,2 45 0,0
28.05.2020 19:00:00 10,7 7,0 7 4 14 8 SE 1029,9 45 0,0
28.05.2020 18:00:00 11,2 7,3 11 6 14 8 ESE 1030,0 45 0,0
28.05.2020 17:00:00 11,2 7,3 7 4 18 10 SE 1030,1 45 0,0
28.05.2020 16:00:00 11,8 7,9 11 6 25 14 SE 1030,0 45 0,0
28.05.2020 15:00:00 15,3 3,4 11 6 32 18 N 1029,7 45 0,0
28.05.2020 14:00:00 15,6 3,1 14 8 32 18 NNE 1029,5 40 0,0
28.05.2020 13:00:00 15,6 2,7 14 8 29 16 WNW 1029,5 40 0,0
28.05.2020 12:00:00 15,0 3,8 11 6 25 14 NNW 1029,6 40 0,0
28.05.2020 11:00:00 14,1 4,1 14 8 25 14 NNW 1029,5 35 0,0
28.05.2020 10:00:00 13,4 4,0 14 8 25 14 N 1029,6 45 0,0
28.05.2020 09:00:00 12,6 5,3 14 8 22 12 N 1029,4 45 0,0
28.05.2020 08:00:00 11,7 5,1 14 8 25 14 N 1029,3 45 0,0
28.05.2020 07:00:00 11,1 5,8 11 6 18 10 N 1029,0 45 0,0
28.05.2020 06:00:00 9,7 6,0 7 4 18 10 N 1028,7 45 0,0
28.05.2020 05:00:00 8,5 6,6 11 6 18 10 NNW 1028,0 50 0,0
28.05.2020 04:00:00 7,8 7,4 7 4 14 8 NNW 1027,6 45 0,0
28.05.2020 03:00:00 7,6 7,0 7 4 11 6 NNW 1027,2 45 0,0
28.05.2020 02:00:00 7,7 7,1 7 4 11 6 NNW 1027,0 45 0,0
28.05.2020 01:00:00 7,8 7,2 7 4 11 6 NNW 1026,9 45 0,0
28.05.2020 00:00:00 7,8 7,2 4 2 7 4 NW 1026,7 50 0,0
27.05.2020 23:00:00 8,4 7,6 4 2 11 6 WNW 1026,5 45 0,0
27.05.2020 22:00:00 10,5 8,8 4 2 22 12 N 1026,0 45 0,0
27.05.2020 21:00:00 11,1 8,8 14 8 25 14 N 1025,6 50 0,0
27.05.2020 20:00:00 11,4 9,3 14 8 29 16 NNE 1025,2 45 0,0
27.05.2020 19:00:00 11,8 10,2 14 8 25 14 NNE 1024,6 50 0,1
27.05.2020 18:00:00 13,8 9,2 14 8 40 21 NNE 1024,1 40 0,0
27.05.2020 17:00:00 19,3 8,3 14 8 22 12 WNW 1022,7 40 0,0
27.05.2020 16:00:00 19,2 8,5 11 6 18 10 W 1022,9 45 0,0
27.05.2020 15:00:00 18,8 8,7 11 6 22 12 WNW 1023,5 45 0,0
27.05.2020 14:00:00 19,1 9,8 11 6 22 12 NNW 1023,8 35 0,0
27.05.2020 13:00:00 18,8 9,8 14 8 25 14 WSW 1024,1 40 0,0
27.05.2020 12:00:00 18,7 10,0 11 6 22 12 W 1024,5 45 0,0
27.05.2020 11:00:00 18,1 10,7 11 6 22 12 WSW 1025,0 45 0,0
27.05.2020 10:00:00 16,7 9,9 11 6 18 10 WSW 1025,4 40 0,0
27.05.2020 09:00:00 15,9 10,0 7 4 25 14 SSW 1025,8 35 0,0
27.05.2020 08:00:00 13,4 8,9 11 6 22 12 W 1026,3 45 0,0
27.05.2020 07:00:00 12,5 8,6 11 6 22 12 W 1026,8 40 0,0
27.05.2020 06:00:00 12,2 8,3 11 6 14 8 W 1027,2 45 0,0
27.05.2020 05:00:00 10,0 7,2 7 4 11 6 W 1027,7 45 0,0
27.05.2020 04:00:00 10,0 7,2 7 4 14 8 W 1028,0 45 0,0
27.05.2020 03:00:00 8,7 7,3 4 2 7 4 WNW 1028,5 45 0,0
27.05.2020 02:00:00 8,6 7,8 4 2 4 2 NNW 1028,8 45 0,0
27.05.2020 01:00:00 9,5 8,4 4 2 4 2 WNW 1029,1 45 0,0
27.05.2020 00:00:00 9,0 8,4 0 0 7 4 N 1029,4 45 0,0
26.05.2020 23:00:00 9,6 8,8 0 0 4 2 N 1029,9 40 0,0
26.05.2020 22:00:00 11,1 9,7 0 0 7 4 N 1030,4 45 0,0
26.05.2020 21:00:00 12,7 10,1 4 2 11 6 SSE 1030,5 45 0,0
26.05.2020 20:00:00 14,2 9,8 7 4 18 10 S 1030,7 40 0,0
26.05.2020 19:00:00 15,5 8,7 14 8 22 12 S 1031,0 40 0,0
26.05.2020 18:00:00 15,4 9,3 7 4 22 12 S 1031,6 35 0,0
26.05.2020 17:00:00 16,3 7,8 14 8 25 14 S 1031,8 45 0,0
26.05.2020 16:00:00 16,8 6,9 18 10 25 14 SSW 1032,3 45 0,0
26.05.2020 15:00:00 17,1 9,5 14 8 22 12 S 1032,6 35 0,0
26.05.2020 14:00:00 17,7 10,1 11 6 18 10 S 1032,9 45 0,0
26.05.2020 13:00:00 16,8 8,6 14 8 18 10 S 1033,3 35 0,0
26.05.2020 12:00:00 18,3 10,9 11 6 14 8 S 1033,5 35 0,0
26.05.2020 11:00:00 16,9 8,3 7 4 11 6 SE 1033,7 40 0,0
26.05.2020 10:00:00 14,9 9,5 4 2 7 4 SSE 1033,8 35 0,0
26.05.2020 09:00:00 13,2 8,7 4 2 7 4 SSE 1033,7 30 0,0
26.05.2020 08:00:00 11,8 8,5 4 2 7 4 SSE 1033,4 30 0,0
26.05.2020 07:00:00 10,5 7,7 4 2 4 2 SSE 1033,2 40 0,0
26.05.2020 06:00:00 8,2 7,4 0 0 4 2 N 1033,2 30 0,0
26.05.2020 05:00:00 4,9 4,9 0 0 4 2 N 1033,0 24 0,0
26.05.2020 04:00:00 4,7 4,7 0 0 4 2 N 1032,5 24 0,0
26.05.2020 03:00:00 5,2 5,2 4 2 4 2 W 1032,5 25 0,0
26.05.2020 02:00:00 5,9 5,9 0 0 4 2 N 1032,6 40 0,0
26.05.2020 01:00:00 6,6 6,6 0 0 4 2 N 1032,5 45 0,0
26.05.2020 00:00:00 7,2 7,1 0 0 4 2 N 1032,3 40 0,0
25.05.2020 23:00:00 7,9 7,6 0 0 4 2 N 1031,9 45 0,0
25.05.2020 22:00:00 8,9 8,1 4 2 7 4 W 1031,4 45 0,0
25.05.2020 21:00:00 11,1 9,4 4 2 7 4 SW 1030,9 40 0,0
25.05.2020 20:00:00 12,8 9,8 7 4 7 4 S 1030,3 45 0,0
25.05.2020 19:00:00 13,4 9,1 4 2 7 4 S 1029,8 35 0,0
25.05.2020 18:00:00 13,1 9,0 4 2 11 6 SE 1029,4 40 0,0
25.05.2020 17:00:00 13,4 9,6 7 4 11 6 S 1029,1 40 0,0
25.05.2020 16:00:00 12,8 10,0 7 4 18 10 SE 1028,6 45 0,1
25.05.2020 15:00:00 12,9 9,5 7 4 18 10 E 1028,3 18 0,1
25.05.2020 14:00:00 13,6 9,1 7 4 14 8 ESE 1027,4 40 0,0
25.05.2020 13:00:00 14,4 9,8 7 4 18 10 SSE 1026,9 30 0,0
25.05.2020 12:00:00 13,8 10,0 11 6 14 8 SE 1026,4 35 0,0
25.05.2020 11:00:00 12,4 9,4 7 4 14 8 SE 1025,8 40 0,0
25.05.2020 10:00:00 10,7 9,1 7 4 11 6 SE 1025,1 45 0,0
25.05.2020 09:00:00 9,6 8,5 7 4 14 8 SE 1024,2 35 0,0
25.05.2020 08:00:00 8,6 8,0 7 4 11 6 E 1023,4 35 0,0
25.05.2020 07:00:00 7,4 7,4 7 4 14 8 NNE 1022,5 19 0,0
25.05.2020 06:00:00 7,7 7,7 7 4 14 8 NE 1021,7 20 0,0
25.05.2020 05:00:00 7,7 7,7 7 4 14 8 ENE 1020,7 5 0,0
25.05.2020 04:00:00 7,5 7,5 4 2 11 6 E 1019,7 2,2 0,0
25.05.2020 03:00:00 7,8 7,8 4 2 11 6 ENE 1018,8 0,6 0,0
25.05.2020 02:00:00 8,5 8,5 4 2 11 6 E 1018,2 7 0,0
25.05.2020 01:00:00 8,9 8,9 7 4 11 6 SE 1017,6 14 0,0
25.05.2020 00:00:00 7,1 7,0 4 2 7 4 NE 1017,2 19 0,0
24.05.2020 23:00:00 8,3 8,2 4 2 7 4 ENE 1016,8 22 0,0
24.05.2020 22:00:00 9,1 8,6 4 2 11 6 ENE 1016,4 18 0,0
24.05.2020 21:00:00 10,5 9,3 7 4 11 6 SE 1015,8 23 0,0
24.05.2020 20:00:00 10,7 9,1 7 4 22 12 S 1015,4 20 0,0
24.05.2020 19:00:00 11,3 9,6 14 8 22 12 S 1015,2 19 0,0
24.05.2020 18:00:00 12,9 9,3 14 8 22 12 S 1015,0 24 0,0
24.05.2020 17:00:00 13,5 7,5 14 8 25 14 S 1014,8 30 0,0
24.05.2020 16:00:00 13,9 7,9 18 10 25 14 S 1014,6 35 0,0
24.05.2020 15:00:00 14,9 8,4 18 10 25 14 S 1014,4 35 0,0
24.05.2020 14:00:00 14,6 9,4 18 10 25 14 S 1014,3 30 0,0
24.05.2020 13:00:00 14,7 9,7 14 8 25 14 S 1014,4 30 0,0
24.05.2020 12:00:00 14,9 9,9 14 8 22 12 S 1014,2 28 0,0
24.05.2020 11:00:00 13,9 10,1 11 6 18 10 S 1014,1 30 0,0
24.05.2020 10:00:00 13,1 10,3 7 4 14 8 SE 1014,1 35 0,0
24.05.2020 09:00:00 11,9 10,1 11 6 11 6 SSE 1014,1 35 0,0
24.05.2020 08:00:00 9,7 9,7 0 0 4 2 N 1014,1 40 0,0
24.05.2020 07:00:00 8,5 8,5 0 0 4 2 N 1014,0 3,9 0,0
24.05.2020 06:00:00 7,6 7,6 0 0 0 0 N 1013,8 0,5 0,0
24.05.2020 05:00:00 7,3 7,3 0 0 7 4 N 1013,7 0,2 0,0
24.05.2020 04:00:00 8,5 8,5 4 2 7 4 S 1013,6 6 0,0
24.05.2020 03:00:00 8,5 8,5 4 2 11 6 SSW 1013,8 15 0,0
24.05.2020 02:00:00 8,7 8,7 7 4 14 8 SW 1013,9 19 0,0
24.05.2020 01:00:00 8,7 8,7 7 4 18 10 SW 1014,0 22 0,0
24.05.2020 00:00:00 8,7 8,7 11 6 18 10 S 1014,1 10 0,0
23.05.2020 23:00:00 8,8 8,8 7 4 14 8 S 1014,1 17 0,0
23.05.2020 22:00:00 8,5 8,4 11 6 22 12 SW 1014,2 20 0,0
23.05.2020 21:00:00 8,5 8,4 18 10 29 16 S 1014,0 30 0,0
23.05.2020 20:00:00 8,4 8,1 18 10 29 16 S 1014,1 16 0,0
23.05.2020 19:00:00 8,7 7,2 14 8 29 16 SE 1014,4 45 0,0
23.05.2020 18:00:00 8,2 7,1 22 12 29 16 SE 1015,3 26 0,1
23.05.2020 17:00:00 7,9 6,5 14 8 22 12 SE 1016,3 24 0,7
23.05.2020 16:00:00 8,3 6,3 14 8 36 19 SSE 1017,2 20 0,9
23.05.2020 15:00:00 8,7 5,6 18 10 40 21 S 1017,7 17 0,3
23.05.2020 14:00:00 10,4 5,2 18 10 36 19 S 1017,8 45 0,0
23.05.2020 13:00:00 10,8 4,0 18 10 29 16 S 1018,2 45 0,0
23.05.2020 12:00:00 10,9 4,8 18 10 29 16 S 1018,7 45 0,0
23.05.2020 11:00:00 10,9 4,1 18 10 29 16 S 1018,9 45 0,0
23.05.2020 10:00:00 10,4 5,0 18 10 29 16 S 1019,4 45 0,0
23.05.2020 09:00:00 10,2 4,1 18 10 25 14 S 1019,7 45 0,0
23.05.2020 08:00:00 10,2 4,3 14 8 25 14 S 1019,8 50 0,0
23.05.2020 07:00:00 10,2 5,0 14 8 25 14 S 1020,2 45 0,0
23.05.2020 06:00:00 10,2 6,2 14 8 22 12 S 1020,5 45 0,0
23.05.2020 05:00:00 9,3 5,8 11 6 18 10 S 1020,9 50 0,0
23.05.2020 04:00:00 9,4 5,9 11 6 18 10 S 1021,1 50 0,0
23.05.2020 03:00:00 9,5 5,7 14 8 18 10 S 1021,4 50 0,0
23.05.2020 02:00:00 9,6 5,2 7 4 18 10 S 1021,8 50 0,0
23.05.2020 01:00:00 9,5 5,7 11 6 18 10 S 1022,0 50 0,0
23.05.2020 00:00:00 9,0 6,1 7 4 14 8 S 1022,6 45 0,0
22.05.2020 23:00:00 8,8 5,4 7 4 14 8 SE 1022,7 50 0,0
22.05.2020 22:00:00 9,3 5,3 11 6 14 8 SSE 1023,1 50 0,0

tt = temperature
td = dewpoint
ff = wind speed
fx = gusts
dd = wind direction
ppp = reduced air pressure
vv = visibility
rr = precipitation

Next stations